QPF
0.00 0.00 0.01 0.03 0.10 0.12 0.09 0.05 0.02 0.02 0.01 0.00 0.00 0.01 0.02 0.05 0.08 0.12 0.18 0.15 0.14 0.15 0.13 0.09 0.09 0.10 0.08 0.06 0.07 0.07 0.09 0.07 0.05 0.06 0.06 0.05 0.05 0.03 0.03 0.03 0.03 0.03 0.04 0.03 0.01 0.01 0.02 0.02 0.02
0.00 0.01 0.02 0.05 0.12 0.10 0.07 0.02 0.01 0.02 0.01 0.01 0.00 0.01 0.02 0.02 0.02 0.06 0.12 0.16 0.12 0.12 0.10 0.06 0.05 0.06 0.05 0.06 0.08 0.07 0.08 0.06 0.05 0.06 0.07 0.07 0.05 0.03 0.02 0.01 0.02 0.02 0.03 0.02 0.01 0.01 0.01 0.02 0.02
0.00 0.01 0.03 0.08 0.08 0.06 0.04 0.01 0.00 0.00 0.00 0.01 0.01 0.01 0.01 0.03 0.03 0.07 0.10 0.12 0.14 0.12 0.09 0.06 0.05 0.05 0.05 0.06 0.08 0.08 0.08 0.08 0.06 0.06 0.08 0.07 0.05 0.03 0.02 0.01 0.01 0.02 0.02 0.02 0.01 0.01 0.01 0.02 0.02
0.00 0.01 0.03 0.05 0.07 0.02 0.00 0.00 0.00 0.00 0.00 0.00 0.01 0.01 0.02 0.03 0.03 0.08 0.10 0.08 0.11 0.09 0.07 0.05 0.05 0.05 0.05 0.05 0.07 0.09 0.08 0.07 0.07 0.07 0.08 0.08 0.05 0.05 0.03 0.02 0.01 0.01 0.02 0.02 0.02 0.02 0.02 0.02 0.01
0.00 0.01 0.03 0.04 0.04 0.01 0.00 0.00 0.00 0.00 0.01 0.01 0.01 0.02 0.04 0.04 0.03 0.06 0.08 0.05 0.08 0.09 0.06 0.04 0.05 0.04 0.04 0.04 0.06 0.08 0.08 0.06 0.08 0.09 0.08 0.07 0.07 0.05 0.04 0.02 0.01 0.01 0.02 0.04 0.02 0.02 0.03 0.02 0.01
0.03 0.02 0.03 0.05 0.03 0.02 0.00 0.00 0.00 0.01 0.01 0.01 0.01 0.02 0.04 0.06 0.07 0.08 0.07 0.06 0.07 0.07 0.07 0.04 0.04 0.03 0.03 0.04 0.06 0.08 0.08 0.08 0.10 0.09 0.06 0.06 0.06 0.05 0.03 0.02 0.01 0.01 0.02 0.04 0.04 0.02 0.02 0.01 0.01
0.04 0.04 0.04 0.05 0.02 0.01 0.00 0.00 0.00 0.01 0.02 0.02 0.01 0.01 0.03 0.05 0.10 0.11 0.10 0.10 0.11 0.09 0.08 0.06 0.05 0.04 0.04 0.05 0.07 0.10 0.11 0.11 0.09 0.07 0.06 0.04 0.05 0.04 0.04 0.02 0.01 0.02 0.03 0.04 0.04 0.02 0.01 0.01 0.01
0.01 0.02 0.02 0.01 0.01 0.01 0.00 0.00 0.00 0.01 0.02 0.01 0.01 0.01 0.03 0.04 0.10 0.12 0.12 0.12 0.13 0.10 0.08 0.08 0.08 0.09 0.08 0.09 0.10 0.11 0.12 0.12 0.09 0.07 0.06 0.05 0.05 0.04 0.03 0.02 0.02 0.04 0.06 0.05 0.03 0.02 0.02 0.01 0.02
0.01 0.01 0.01 0.01 0.00 0.00 0.00 0.00 0.00 0.01 0.01 0.02 0.01 0.01 0.03 0.03 0.06 0.10 0.12 0.11 0.13 0.12 0.09 0.09 0.10 0.12 0.13 0.14 0.12 0.11 0.14 0.12 0.10 0.08 0.07 0.07 0.10 0.09 0.06 0.03 0.02 0.04 0.05 0.04 0.03 0.02 0.01 0.01 0.02
0.01 0.01 0.01 0.00 0.00 0.00 0.00 0.00 0.00 0.02 0.04 0.03 0.01 0.01 0.01 0.01 0.02 0.05 0.07 0.06 0.08 0.11 0.09 0.07 0.09 0.12 0.15 0.16 0.14 0.15 0.13 0.10 0.10 0.09 0.10 0.11 0.10 0.10 0.06 0.03 0.03 0.04 0.05 0.05 0.04 0.03 0.02 0.02 0.03
0.00 0.01 0.01 0.00 0.00 0.00 0.00 0.00 0.00 0.01 0.03 0.03 0.02 0.02 0.01 0.01 0.02 0.02 0.03 0.04 0.05 0.06 0.08 0.07 0.08 0.13 0.20 0.23 0.16 0.12 0.12 0.11 0.14 0.13 0.12 0.13 0.09 0.08 0.07 0.06 0.04 0.05 0.07 0.07 0.07 0.07 0.06 0.05 0.06
0.00 0.00 0.00 0.00 0.00 0.00 0.00 0.00 0.01 0.02 0.04 0.04 0.02 0.02 0.01 0.01 0.01 0.01 0.02 0.03 0.03 0.04 0.06 0.07 0.08 0.17 0.27 0.22 0.16 0.12 0.10 0.12 0.15 0.12 0.10 0.10 0.08 0.08 0.08 0.06 0.05 0.06 0.06 0.06 0.07 0.07 0.06 0.05 0.03
0.00 0.00 0.00 0.00 0.00 0.00 0.00 0.00 0.00 0.02 0.03 0.03 0.02 0.01 0.01 0.02 0.03 0.03 0.02 0.02 0.03 0.03 0.03 0.07 0.09 0.16 0.25 0.22 0.20 0.16 0.13 0.14 0.13 0.10 0.08 0.07 0.07 0.07 0.06 0.05 0.06 0.06 0.05 0.04 0.06 0.06 0.05 0.03 0.03
0.00 0.00 0.00 0.01 0.00 0.00 0.00 0.01 0.03 0.03 0.02 0.03 0.03 0.02 0.02 0.02 0.02 0.02 0.02 0.02 0.03 0.03 0.03 0.03 0.05 0.08 0.13 0.19 0.20 0.18 0.16 0.15 0.13 0.10 0.07 0.05 0.05 0.06 0.06 0.05 0.05 0.05 0.04 0.03 0.06 0.05 0.05 0.03 0.03
0.00 0.00 0.01 0.02 0.00 0.00 0.01 0.03 0.06 0.02 0.01 0.02 0.04 0.03 0.02 0.02 0.02 0.02 0.01 0.01 0.02 0.03 0.04 0.02 0.03 0.05 0.06 0.08 0.13 0.14 0.15 0.14 0.11 0.09 0.06 0.04 0.05 0.06 0.05 0.06 0.06 0.05 0.05 0.04 0.05 0.04 0.05 0.04 0.03
0.01 0.01 0.01 0.00 0.00 0.00 0.01 0.05 0.04 0.01 0.01 0.02 0.03 0.03 0.03 0.03 0.03 0.01 0.01 0.01 0.02 0.02 0.04 0.03 0.03 0.05 0.04 0.05 0.06 0.09 0.12 0.11 0.08 0.06 0.04 0.04 0.04 0.03 0.04 0.04 0.06 0.06 0.05 0.03 0.05 0.03 0.03 0.04 0.03
0.01 0.01 0.01 0.01 0.00 0.01 0.01 0.01 0.01 0.00 0.00 0.01 0.03 0.03 0.03 0.04 0.03 0.02 0.01 0.00 0.01 0.02 0.02 0.04 0.05 0.06 0.05 0.05 0.05 0.05 0.05 0.05 0.04 0.03 0.03 0.04 0.04 0.03 0.05 0.05 0.05 0.05 0.04 0.03 0.05 0.06 0.06 0.05 0.03
0.01 0.01 0.00 0.00 0.00 0.00 0.00 0.01 0.00 0.00 0.00 0.01 0.02 0.03 0.03 0.04 0.04 0.02 0.01 0.00 0.01 0.02 0.03 0.04 0.06 0.06 0.05 0.04 0.06 0.07 0.06 0.04 0.02 0.02 0.03 0.04 0.06 0.05 0.06 0.06 0.05 0.06 0.08 0.07 0.07 0.07 0.08 0.07 0.06
0.01 0.01 0.01 0.00 0.00 0.00 0.00 0.01 0.00 0.00 0.01 0.01 0.01 0.01 0.02 0.03 0.02 0.01 0.01 0.01 0.02 0.03 0.04 0.05 0.04 0.03 0.04 0.05 0.05 0.07 0.07 0.05 0.03 0.03 0.03 0.03 0.04 0.04 0.06 0.07 0.09 0.09 0.09 0.09 0.08 0.09 0.09 0.08 0.08
0.00 0.01 0.01 0.00 0.00 0.00 0.00 0.01 0.00 0.00 0.00 0.01 0.01 0.01 0.02 0.02 0.02 0.01 0.01 0.02 0.02 0.03 0.03 0.04 0.03 0.02 0.02 0.02 0.04 0.05 0.05 0.04 0.04 0.03 0.04 0.03 0.03 0.04 0.05 0.08 0.08 0.09 0.10 0.10 0.09 0.09 0.08 0.06 0.07
0.00 0.00 0.01 0.01 0.00 0.00 0.01 0.04 0.01 0.00 0.00 0.00 0.01 0.01 0.02 0.02 0.02 0.02 0.01 0.01 0.02 0.03 0.03 0.03 0.04 0.02 0.01 0.02 0.03 0.04 0.05 0.05 0.05 0.04 0.03 0.02 0.01 0.02 0.02 0.03 0.05 0.07 0.07 0.11 0.11 0.09 0.09 0.07 0.06
0.00 0.00 0.01 0.01 0.00 0.00 0.00 0.03 0.03 0.01 0.00 0.00 0.00 0.01 0.01 0.02 0.02 0.01 0.01 0.01 0.01 0.02 0.03 0.04 0.04 0.03 0.03 0.02 0.02 0.04 0.04 0.05 0.05 0.04 0.03 0.02 0.02 0.01 0.02 0.02 0.02 0.04 0.05 0.10 0.08 0.10 0.09 0.09 0.06
0.00 0.00 0.00 0.00 0.00 0.00 0.00 0.00 0.01 0.04 0.03 0.01 0.00 0.01 0.01 0.01 0.01 0.00 0.00 0.00 0.00 0.01 0.01 0.03 0.06 0.05 0.05 0.04 0.03 0.03 0.03 0.03 0.03 0.03 0.04 0.03 0.02 0.03 0.03 0.04 0.03 0.03 0.04 0.07 0.07 0.08 0.08 0.08 0.06
0.00 0.00 0.00 0.00 0.00 0.00 0.00 0.00 0.00 0.02 0.03 0.01 0.00 0.00 0.00 0.01 0.01 0.01 0.01 0.00 0.00 0.01 0.02 0.02 0.05 0.06 0.06 0.05 0.03 0.03 0.03 0.04 0.05 0.05 0.04 0.03 0.02 0.02 0.02 0.03 0.05 0.04 0.06 0.07 0.06 0.07 0.08 0.07 0.07
0.00 0.00 0.01 0.01 0.01 0.01 0.00 0.00 0.00 0.00 0.00 0.00 0.00 0.00 0.00 0.00 0.01 0.01 0.01 0.01 0.01 0.01 0.01 0.02 0.03 0.04 0.05 0.05 0.05 0.05 0.05 0.06 0.05 0.04 0.04 0.04 0.03 0.02 0.02 0.03 0.04 0.05 0.05 0.05 0.06 0.07 0.08 0.06 0.06
0.00 0.00 0.01 0.02 0.02 0.02 0.01 0.00 0.00 0.00 0.00 0.00 0.00 0.00 0.00 0.01 0.03 0.01 0.01 0.02 0.01 0.00 0.00 0.01 0.02 0.03 0.05 0.07 0.08 0.09 0.10 0.08 0.05 0.04 0.04 0.04 0.03 0.03 0.03 0.03 0.03 0.03 0.03 0.05 0.07 0.06 0.06 0.06 0.06
0.00 0.00 0.00 0.00 0.00 0.01 0.02 0.01 0.00 0.00 0.00 0.00 0.00 0.00 0.00 0.01 0.02 0.01 0.00 0.03 0.04 0.02 0.00 0.00 0.01 0.02 0.05 0.11 0.15 0.17 0.15 0.11 0.08 0.07 0.04 0.03 0.02 0.02 0.02 0.02 0.04 0.04 0.04 0.04 0.06 0.06 0.07 0.08 0.06
0.00 0.00 0.00 0.00 0.01 0.01 0.02 0.02 0.01 0.00 0.00 0.00 0.00 0.00 0.00 0.00 0.01 0.01 0.00 0.02 0.05 0.05 0.02 0.00 0.00 0.01 0.01 0.03 0.05 0.07 0.08 0.07 0.07 0.07 0.06 0.05 0.03 0.02 0.04 0.05 0.06 0.06 0.05 0.04 0.05 0.05 0.06 0.06 0.05
0.00 0.00 0.00 0.00 0.01 0.02 0.02 0.02 0.01 0.00 0.00 0.00 0.00 0.01 0.01 0.01 0.02 0.04 0.01 0.00 0.03 0.07 0.04 0.01 0.00 0.00 0.01 0.01 0.02 0.02 0.04 0.07 0.08 0.06 0.05 0.05 0.05 0.05 0.06 0.07 0.06 0.06 0.06 0.06 0.05 0.05 0.05 0.04 0.04
0.00 0.00 0.00 0.00 0.00 0.01 0.02 0.01 0.00 0.00 0.00 0.00 0.00 0.02 0.04 0.02 0.03 0.06 0.02 0.00 0.01 0.03 0.04 0.04 0.02 0.00 0.00 0.01 0.01 0.01 0.02 0.04 0.05 0.04 0.04 0.04 0.05 0.06 0.05 0.05 0.06 0.07 0.07 0.07 0.06 0.05 0.05 0.04 0.05
MSLP
1005.46 1006.06 1006.72 1007.32 1007.74 1007.93 1007.85 1007.55 1007.11 1006.67 1006.37 1006.30 1006.52 1006.98 1007.62 1008.31 1008.93 1009.36 1009.56 1009.57 1009.43 1009.28 1009.20 1009.27 1009.54 1009.97 1010.49 1011.01 1011.45 1011.77 1011.95 1012.04 1012.09 1012.18 1012.37 1012.66 1013.04 1013.47 1013.88 1014.22 1014.47 1014.61 1014.66 1014.68 1014.70 1014.74 1014.82 1014.92 1015.02
1005.48 1006.15 1006.82 1007.37 1007.72 1007.79 1007.61 1007.22 1006.74 1006.30 1006.03 1006.02 1006.28 1006.78 1007.43 1008.10 1008.68 1009.08 1009.28 1009.30 1009.24 1009.18 1009.22 1009.43 1009.82 1010.34 1010.91 1011.46 1011.90 1012.21 1012.39 1012.47 1012.54 1012.65 1012.84 1013.13 1013.49 1013.86 1014.21 1014.47 1014.63 1014.71 1014.72 1014.71 1014.73 1014.79 1014.89 1015.02 1015.13
1005.56 1006.27 1006.92 1007.42 1007.68 1007.67 1007.40 1006.95 1006.46 1006.03 1005.81 1005.84 1006.15 1006.66 1007.30 1007.93 1008.46 1008.81 1008.99 1009.03 1009.02 1009.05 1009.22 1009.55 1010.05 1010.65 1011.28 1011.86 1012.32 1012.63 1012.80 1012.90 1012.97 1013.08 1013.27 1013.53 1013.83 1014.14 1014.40 1014.58 1014.67 1014.69 1014.68 1014.67 1014.72 1014.81 1014.95 1015.11 1015.24
1005.66 1006.38 1007.01 1007.45 1007.64 1007.55 1007.23 1006.78 1006.30 1005.92 1005.76 1005.84 1006.17 1006.68 1007.28 1007.85 1008.30 1008.60 1008.74 1008.79 1008.83 1008.95 1009.22 1009.65 1010.24 1010.92 1011.60 1012.20 1012.67 1012.98 1013.16 1013.27 1013.34 1013.46 1013.62 1013.85 1014.10 1014.33 1014.52 1014.62 1014.65 1014.64 1014.62 1014.64 1014.72 1014.86 1015.04 1015.22 1015.36
1005.71 1006.41 1007.01 1007.40 1007.54 1007.43 1007.12 1006.69 1006.28 1005.98 1005.88 1006.02 1006.36 1006.85 1007.39 1007.88 1008.25 1008.47 1008.58 1008.63 1008.71 1008.90 1009.25 1009.77 1010.43 1011.16 1011.86 1012.47 1012.93 1013.25 1013.43 1013.54 1013.63 1013.75 1013.91 1014.10 1014.30 1014.48 1014.60 1014.65 1014.64 1014.62 1014.61 1014.66 1014.78 1014.96 1015.16 1015.35 1015.49
1005.65 1006.32 1006.88 1007.24 1007.37 1007.28 1007.02 1006.68 1006.36 1006.17 1006.16 1006.34 1006.70 1007.15 1007.62 1008.02 1008.30 1008.46 1008.53 1008.58 1008.69 1008.93 1009.34 1009.91 1010.61 1011.35 1012.05 1012.65 1013.10 1013.40 1013.59 1013.71 1013.81 1013.94 1014.10 1014.28 1014.46 1014.59 1014.68 1014.70 1014.67 1014.65 1014.66 1014.73 1014.88 1015.08 1015.30 1015.49 1015.60
1005.46 1006.08 1006.60 1006.96 1007.11 1007.09 1006.93 1006.71 1006.53 1006.45 1006.53 1006.76 1007.11 1007.52 1007.91 1008.23 1008.42 1008.52 1008.56 1008.61 1008.74 1009.03 1009.47 1010.07 1010.77 1011.49 1012.16 1012.71 1013.14 1013.42 1013.60 1013.74 1013.86 1014.02 1014.20 1014.39 1014.56 1014.69 1014.75 1014.76 1014.73 1014.71 1014.73 1014.82 1014.98 1015.19 1015.41 1015.58 1015.66
1005.16 1005.74 1006.24 1006.60 1006.81 1006.88 1006.84 1006.77 1006.72 1006.77 1006.93 1007.20 1007.54 1007.90 1008.22 1008.45 1008.57 1008.62 1008.64 1008.69 1008.84 1009.14 1009.60 1010.20 1010.87 1011.54 1012.16 1012.66 1013.04 1013.30 1013.49 1013.64 1013.79 1013.98 1014.19 1014.41 1014.60 1014.73 1014.80 1014.80 1014.77 1014.75 1014.77 1014.86 1015.02 1015.22 1015.42 1015.57 1015.63
1004.85 1005.40 1005.88 1006.27 1006.54 1006.71 1006.79 1006.85 1006.94 1007.09 1007.31 1007.59 1007.91 1008.22 1008.46 1008.62 1008.69 1008.70 1008.70 1008.76 1008.92 1009.23 1009.68 1010.25 1010.88 1011.49 1012.04 1012.49 1012.82 1013.06 1013.24 1013.42 1013.61 1013.84 1014.09 1014.34 1014.55 1014.70 1014.78 1014.78 1014.74 1014.71 1014.73 1014.80 1014.94 1015.12 1015.31 1015.45 1015.51
1004.66 1005.17 1005.65 1006.06 1006.39 1006.64 1006.83 1006.99 1007.16 1007.38 1007.63 1007.91 1008.19 1008.43 1008.61 1008.71 1008.73 1008.71 1008.71 1008.76 1008.93 1009.23 1009.66 1010.19 1010.76 1011.31 1011.79 1012.19 1012.48 1012.71 1012.90 1013.10 1013.33 1013.60 1013.89 1014.17 1014.41 1014.58 1014.65 1014.65 1014.61 1014.56 1014.55 1014.61 1014.73 1014.89 1015.07 1015.21 1015.28
1004.70 1005.20 1005.66 1006.08 1006.44 1006.73 1006.97 1007.19 1007.40 1007.63 1007.87 1008.12 1008.35 1008.53 1008.65 1008.70 1008.68 1008.65 1008.63 1008.69 1008.84 1009.13 1009.52 1010.00 1010.51 1011.00 1011.43 1011.78 1012.05 1012.28 1012.48 1012.71 1012.98 1013.28 1013.60 1013.91 1014.16 1014.33 1014.41 1014.40 1014.35 1014.28 1014.26 1014.29 1014.39 1014.54 1014.72 1014.88 1014.98
1005.03 1005.52 1005.97 1006.37 1006.72 1007.01 1007.24 1007.45 1007.65 1007.84 1008.03 1008.22 1008.39 1008.52 1008.59 1008.60 1008.57 1008.53 1008.50 1008.54 1008.68 1008.93 1009.27 1009.69 1010.14 1010.58 1010.97 1011.30 1011.57 1011.80 1012.03 1012.28 1012.57 1012.90 1013.23 1013.55 1013.81 1013.98 1014.05 1014.04 1013.97 1013.90 1013.86 1013.88 1013.97 1014.12 1014.31 1014.49 1014.64
1005.67 1006.13 1006.55 1006.90 1007.19 1007.42 1007.60 1007.74 1007.87 1007.98 1008.11 1008.23 1008.34 1008.43 1008.47 1008.47 1008.44 1008.39 1008.36 1008.39 1008.49 1008.68 1008.97 1009.32 1009.72 1010.11 1010.47 1010.80 1011.08 1011.33 1011.58 1011.84 1012.15 1012.47 1012.80 1013.11 1013.36 1013.53 1013.60 1013.59 1013.53 1013.45 1013.41 1013.43 1013.52 1013.68 1013.89 1014.10 1014.29
1006.50 1006.93 1007.28 1007.56 1007.77 1007.90 1007.97 1008.00 1008.02 1008.04 1008.08 1008.14 1008.21 1008.28 1008.33 1008.35 1008.34 1008.31 1008.28 1008.28 1008.34 1008.48 1008.69 1008.98 1009.32 1009.67 1010.02 1010.34 1010.63 1010.90 1011.16 1011.42 1011.71 1012.02 1012.33 1012.61 1012.84 1013.00 1013.08 1013.08 1013.04 1012.99 1012.96 1012.99 1013.10 1013.27 1013.49 1013.73 1013.95
1007.36 1007.73 1008.01 1008.20 1008.29 1008.30 1008.25 1008.16 1008.06 1007.98 1007.94 1007.95 1008.01 1008.10 1008.20 1008.28 1008.32 1008.33 1008.32 1008.31 1008.32 1008.39 1008.53 1008.74 1009.02 1009.33 1009.66 1009.97 1010.27 1010.54 1010.80 1011.05 1011.30 1011.56 1011.82 1012.07 1012.27 1012.43 1012.52 1012.56 1012.55 1012.54 1012.55 1012.61 1012.73 1012.91 1013.14 1013.39 1013.61
1008.07 1008.37 1008.57 1008.66 1008.64 1008.54 1008.36 1008.15 1007.94 1007.77 1007.67 1007.67 1007.75 1007.90 1008.08 1008.25 1008.39 1008.47 1008.49 1008.48 1008.47 1008.48 1008.54 1008.67 1008.88 1009.15 1009.44 1009.75 1010.03 1010.29 1010.53 1010.74 1010.93 1011.13 1011.33 1011.52 1011.70 1011.85 1011.97 1012.04 1012.10 1012.14 1012.19 1012.28 1012.41 1012.59 1012.81 1013.04 1013.26
1008.48 1008.71 1008.84 1008.85 1008.76 1008.57 1008.29 1007.98 1007.67 1007.43 1007.29 1007.28 1007.41 1007.64 1007.94 1008.24 1008.51 1008.70 1008.79 1008.81 1008.78 1008.74 1008.74 1008.80 1008.94 1009.15 1009.40 1009.67 1009.94 1010.17 1010.36 1010.51 1010.64 1010.75 1010.88 1011.01 1011.16 1011.30 1011.45 1011.57 1011.68 1011.77 1011.87 1011.98 1012.12 1012.29 1012.48 1012.68 1012.86
1008.55 1008.72 1008.80 1008.78 1008.65 1008.40 1008.07 1007.68 1007.30 1006.99 1006.82 1006.82 1006.99 1007.32 1007.74 1008.20 1008.62 1008.95 1009.15 1009.22 1009.21 1009.15 1009.09 1009.09 1009.16 1009.31 1009.52 1009.76 1009.98 1010.17 1010.30 1010.38 1010.42 1010.46 1010.50 1010.57 1010.68 1010.82 1010.98 1011.15 1011.30 1011.44 1011.57 1011.69 1011.82 1011.96 1012.11 1012.27 1012.41
1008.30 1008.44 1008.53 1008.52 1008.40 1008.15 1007.78 1007.34 1006.89 1006.52 1006.29 1006.28 1006.49 1006.90 1007.46 1008.07 1008.66 1009.14 1009.47 1009.64 1009.67 1009.62 1009.54 1009.49 1009.51 1009.60 1009.76 1009.95 1010.14 1010.28 1010.35 1010.36 1010.33 1010.28 1010.24 1010.25 1010.32 1010.44 1010.60 1010.79 1010.98 1011.14 1011.28 1011.40 1011.49 1011.59 1011.69 1011.79 1011.90
1007.84 1008.02 1008.16 1008.22 1008.16 1007.94 1007.57 1007.08 1006.55 1006.09 1005.78 1005.72 1005.92 1006.38 1007.04 1007.79 1008.54 1009.19 1009.67 1009.97 1010.08 1010.07 1009.99 1009.92 1009.90 1009.95 1010.07 1010.22 1010.37 1010.47 1010.51 1010.47 1010.37 1010.25 1010.14 1010.09 1010.10 1010.19 1010.34 1010.53 1010.71 1010.88 1011.00 1011.08 1011.14 1011.17 1011.22 1011.27 1011.34
1007.35 1007.60 1007.86 1008.04 1008.08 1007.91 1007.53 1006.99 1006.36 1005.77 1005.34 1005.17 1005.32 1005.78 1006.48 1007.34 1008.24 1009.05 1009.70 1010.13 1010.35 1010.41 1010.37 1010.30 1010.27 1010.30 1010.40 1010.53 1010.66 1010.74 1010.76 1010.69 1010.55 1010.38 1010.22 1010.11 1010.07 1010.11 1010.22 1010.37 1010.53 1010.66 1010.74 1010.77 1010.77 1010.74 1010.73 1010.74 1010.79
1006.97 1007.34 1007.75 1008.09 1008.23 1008.13 1007.75 1007.13 1006.38 1005.62 1005.02 1004.69 1004.72 1005.11 1005.82 1006.75 1007.76 1008.72 1009.52 1010.10 1010.45 1010.60 1010.63 1010.59 1010.57 1010.60 1010.69 1010.82 1010.96 1011.05 1011.07 1011.00 1010.86 1010.67 1010.47 1010.31 1010.22 1010.20 1010.25 1010.34 1010.44 1010.51 1010.53 1010.51 1010.44 1010.35 1010.28 1010.26 1010.30
1006.77 1007.30 1007.89 1008.37 1008.64 1008.59 1008.19 1007.48 1006.57 1005.63 1004.82 1004.29 1004.16 1004.45 1005.11 1006.07 1007.16 1008.24 1009.18 1009.91 1010.39 1010.66 1010.76 1010.78 1010.78 1010.83 1010.93 1011.08 1011.24 1011.36 1011.42 1011.38 1011.26 1011.07 1010.86 1010.67 1010.53 1010.45 1010.43 1010.45 1010.47 1010.47 1010.42 1010.33 1010.19 1010.05 1009.94 1009.89 1009.91
1006.77 1007.47 1008.21 1008.84 1009.20 1009.18 1008.75 1007.95 1006.89 1005.75 1004.73 1004.00 1003.69 1003.84 1004.44 1005.38 1006.52 1007.69 1008.76 1009.62 1010.23 1010.60 1010.79 1010.87 1010.91 1010.99 1011.11 1011.29 1011.49 1011.66 1011.77 1011.78 1011.70 1011.54 1011.34 1011.13 1010.95 1010.81 1010.72 1010.66 1010.60 1010.53 1010.42 1010.26 1010.08 1009.90 1009.74 1009.66 1009.66
1006.88 1007.72 1008.60 1009.34 1009.76 1009.76 1009.30 1008.41 1007.22 1005.91 1004.71 1003.81 1003.34 1003.37 1003.88 1004.79 1005.95 1007.18 1008.34 1009.30 1010.02 1010.49 1010.76 1010.90 1010.99 1011.09 1011.24 1011.45 1011.68 1011.90 1012.07 1012.14 1012.12 1012.00 1011.82 1011.61 1011.41 1011.23 1011.08 1010.96 1010.84 1010.70 1010.53 1010.34 1010.11 1009.90 1009.72 1009.60 1009.58
1007.01 1007.95 1008.91 1009.70 1010.16 1010.16 1009.67 1008.73 1007.46 1006.06 1004.74 1003.71 1003.13 1003.06 1003.50 1004.37 1005.52 1006.78 1007.99 1009.03 1009.83 1010.38 1010.72 1010.91 1011.03 1011.15 1011.32 1011.55 1011.81 1012.07 1012.28 1012.42 1012.45 1012.39 1012.24 1012.05 1011.84 1011.64 1011.46 1011.28 1011.12 1010.95 1010.75 1010.53 1010.29 1010.06 1009.86 1009.72 1009.66
1007.04 1008.02 1009.00 1009.80 1010.26 1010.26 1009.77 1008.82 1007.54 1006.12 1004.77 1003.71 1003.07 1002.95 1003.33 1004.15 1005.28 1006.53 1007.77 1008.84 1009.69 1010.29 1010.67 1010.90 1011.05 1011.18 1011.36 1011.59 1011.86 1012.14 1012.39 1012.57 1012.65 1012.64 1012.54 1012.38 1012.18 1011.98 1011.79 1011.60 1011.43 1011.24 1011.04 1010.82 1010.58 1010.35 1010.14 1009.97 1009.87
1006.92 1007.88 1008.82 1009.58 1010.01 1010.00 1009.53 1008.64 1007.43 1006.08 1004.79 1003.77 1003.15 1003.02 1003.37 1004.15 1005.23 1006.45 1007.66 1008.73 1009.59 1010.22 1010.63 1010.88 1011.04 1011.18 1011.35 1011.58 1011.84 1012.12 1012.38 1012.58 1012.70 1012.72 1012.67 1012.55 1012.39 1012.22 1012.04 1011.87 1011.71 1011.54 1011.36 1011.16 1010.94 1010.72 1010.51 1010.33 1010.18
1006.66 1007.52 1008.36 1009.03 1009.41 1009.41 1009.00 1008.21 1007.14 1005.94 1004.81 1003.90 1003.36 1003.25 1003.59 1004.32 1005.32 1006.47 1007.62 1008.66 1009.51 1010.14 1010.56 1010.83 1011.00 1011.15 1011.30 1011.51 1011.74 1012.00 1012.25 1012.46 1012.59 1012.66 1012.64 1012.57 1012.46 1012.33 1012.20 1012.07 1011.94 1011.81 1011.66 1011.50 1011.32 1011.12 1010.92 1010.72 1010.55
1006.31 1007.03 1007.72 1008.28 1008.59 1008.60 1008.26 1007.61 1006.74 1005.75 1004.82 1004.08 1003.65 1003.59 1003.91 1004.57 1005.48 1006.53 1007.59 1008.56 1009.37 1009.99 1010.43 1010.72 1010.91 1011.06 1011.22 1011.40 1011.60 1011.83 1012.05 1012.25 1012.39 1012.47 1012.49 1012.47 1012.42 1012.34 1012.27 1012.19 1012.12 1012.03 1011.94 1011.82 1011.67 1011.51 1011.32 1011.12 1010.93
Thickness
5840 5843 5843 5835 5813 5800 5799 5809 5817 5817 5820 5827 5829 5822 5808 5799 5788 5774 5795 5804 5801 5796 5791 5788 5786 5783 5782 5781 5779 5778 5776 5775 5774 5773 5771 5770 5769 5768 5768 5768 5767 5767 5766 5766 5765 5765 5765 5764 5764
5849 5851 5842 5827 5804 5793 5797 5814 5814 5818 5827 5833 5829 5821 5809 5800 5803 5798 5800 5802 5802 5797 5792 5788 5785 5782 5781 5780 5778 5776 5775 5774 5773 5771 5770 5769 5768 5767 5767 5767 5766 5766 5765 5765 5765 5764 5764 5764 5763
5851 5852 5833 5820 5812 5801 5802 5818 5821 5829 5836 5831 5822 5818 5806 5797 5802 5801 5804 5805 5802 5797 5792 5786 5784 5782 5780 5778 5776 5775 5774 5773 5771 5770 5769 5767 5767 5766 5766 5765 5765 5765 5765 5764 5764 5764 5763 5763 5763
5852 5848 5837 5823 5814 5821 5824 5828 5833 5829 5831 5832 5823 5807 5804 5809 5807 5806 5808 5806 5801 5797 5792 5785 5783 5781 5779 5777 5775 5774 5772 5771 5770 5769 5768 5767 5766 5765 5765 5765 5764 5764 5764 5763 5763 5763 5762 5762 5762
5856 5841 5824 5819 5820 5831 5839 5841 5839 5827 5824 5826 5819 5799 5794 5808 5812 5810 5808 5806 5801 5797 5791 5786 5782 5780 5778 5776 5775 5773 5772 5771 5769 5768 5767 5766 5765 5764 5764 5764 5764 5763 5763 5763 5762 5762 5761 5761 5761
5844 5841 5819 5813 5821 5834 5842 5846 5840 5829 5825 5825 5817 5801 5794 5808 5808 5808 5808 5806 5803 5797 5791 5785 5781 5780 5778 5776 5774 5773 5771 5770 5769 5768 5767 5766 5765 5764 5764 5763 5763 5763 5762 5762 5761 5761 5761 5761 5761
5841 5832 5823 5822 5823 5828 5839 5848 5838 5828 5824 5826 5826 5802 5796 5804 5808 5810 5808 5805 5802 5797 5792 5786 5782 5779 5777 5775 5774 5773 5771 5770 5769 5768 5766 5766 5765 5765 5764 5763 5763 5762 5762 5761 5761 5761 5761 5761 5761
5864 5843 5831 5831 5827 5827 5844 5847 5844 5835 5827 5838 5833 5807 5794 5803 5810 5809 5805 5802 5799 5797 5793 5789 5785 5781 5779 5776 5774 5773 5772 5770 5769 5768 5767 5766 5766 5765 5764 5764 5763 5763 5762 5761 5761 5761 5761 5761 5762
5871 5840 5826 5833 5833 5835 5848 5842 5844 5848 5835 5832 5832 5822 5813 5813 5811 5804 5799 5797 5795 5794 5793 5790 5788 5784 5782 5779 5776 5774 5772 5770 5769 5768 5767 5767 5767 5767 5765 5765 5764 5763 5762 5762 5761 5761 5762 5762 5762
5862 5832 5836 5852 5854 5848 5849 5846 5844 5837 5824 5818 5818 5818 5817 5813 5807 5801 5796 5792 5791 5791 5791 5791 5789 5787 5785 5783 5778 5776 5774 5772 5771 5771 5769 5769 5769 5769 5768 5766 5765 5764 5763 5762 5762 5762 5762 5763 5764
5863 5846 5854 5861 5865 5861 5853 5851 5852 5835 5819 5819 5814 5812 5813 5810 5806 5802 5799 5796 5794 5793 5792 5792 5790 5788 5786 5784 5780 5779 5777 5774 5773 5773 5772 5771 5771 5770 5769 5767 5765 5765 5764 5764 5764 5764 5764 5766 5767
5865 5864 5867 5866 5869 5863 5856 5853 5846 5839 5832 5837 5830 5823 5816 5810 5807 5804 5802 5800 5798 5795 5793 5793 5791 5788 5785 5784 5783 5781 5779 5777 5775 5774 5774 5773 5773 5772 5770 5769 5768 5768 5767 5767 5768 5767 5767 5769 5770
5863 5865 5871 5873 5871 5867 5860 5851 5845 5839 5844 5843 5835 5826 5818 5813 5810 5810 5808 5804 5800 5796 5795 5794 5791 5787 5784 5783 5782 5782 5781 5779 5777 5776 5775 5775 5774 5773 5772 5771 5771 5771 5770 5769 5769 5769 5769 5770 5770
5866 5867 5868 5870 5868 5865 5853 5848 5842 5837 5846 5839 5831 5823 5820 5816 5814 5810 5807 5803 5800 5798 5796 5794 5791 5787 5784 5782 5782 5783 5782 5780 5780 5778 5776 5775 5775 5774 5773 5772 5771 5772 5772 5771 5770 5770 5770 5770 5771
5871 5856 5856 5863 5866 5864 5854 5832 5834 5843 5846 5836 5830 5825 5822 5819 5817 5812 5810 5807 5804 5800 5798 5795 5792 5789 5786 5784 5783 5784 5783 5782 5780 5779 5777 5776 5775 5774 5773 5773 5772 5772 5773 5772 5772 5772 5771 5771 5772
5858 5843 5834 5854 5867 5864 5844 5812 5835 5849 5844 5833 5830 5825 5822 5820 5820 5818 5815 5812 5808 5803 5799 5797 5797 5791 5788 5786 5785 5785 5784 5782 5781 5779 5778 5776 5775 5774 5774 5773 5773 5774 5774 5773 5773 5772 5771 5770 5771
5839 5830 5831 5846 5868 5864 5847 5828 5842 5854 5846 5834 5831 5827 5823 5820 5820 5820 5818 5815 5811 5806 5801 5798 5797 5793 5790 5787 5786 5786 5784 5783 5782 5781 5779 5778 5776 5776 5775 5775 5775 5775 5775 5774 5774 5772 5771 5769 5769
5826 5834 5838 5841 5863 5862 5848 5842 5848 5854 5849 5839 5833 5830 5825 5821 5820 5822 5820 5818 5814 5809 5804 5799 5797 5794 5791 5788 5786 5785 5784 5783 5783 5782 5781 5779 5778 5777 5777 5776 5776 5776 5775 5773 5773 5771 5771 5769 5769
5849 5845 5841 5851 5868 5859 5847 5845 5849 5854 5850 5842 5836 5831 5827 5824 5826 5825 5822 5820 5815 5809 5805 5801 5797 5794 5791 5788 5784 5781 5780 5782 5783 5783 5782 5780 5779 5779 5778 5778 5777 5776 5774 5773 5772 5771 5769 5769 5770
5854 5844 5842 5853 5869 5860 5845 5840 5851 5855 5851 5849 5840 5835 5831 5827 5824 5823 5822 5820 5815 5810 5806 5802 5798 5796 5793 5790 5788 5786 5785 5784 5784 5785 5784 5782 5781 5781 5781 5779 5778 5777 5775 5773 5772 5770 5767 5768 5770
5851 5846 5844 5842 5856 5860 5846 5829 5838 5849 5855 5855 5850 5845 5839 5832 5826 5823 5822 5820 5817 5811 5808 5806 5801 5799 5796 5794 5791 5788 5786 5784 5784 5783 5783 5783 5783 5782 5781 5780 5779 5778 5776 5773 5771 5770 5767 5764 5767
5840 5860 5856 5849 5839 5833 5838 5809 5828 5840 5841 5847 5848 5846 5843 5839 5833 5828 5825 5822 5820 5816 5813 5809 5804 5801 5798 5795 5791 5787 5782 5780 5782 5784 5785 5785 5784 5783 5782 5781 5780 5778 5777 5774 5772 5772 5769 5766 5762
5851 5865 5858 5850 5841 5834 5839 5822 5821 5838 5828 5838 5848 5849 5849 5845 5840 5833 5830 5826 5824 5822 5817 5812 5806 5802 5800 5796 5793 5789 5786 5785 5786 5786 5785 5784 5784 5783 5783 5782 5780 5778 5776 5774 5773 5772 5770 5768 5764
5862 5856 5852 5849 5839 5813 5831 5824 5815 5833 5834 5841 5850 5853 5852 5850 5845 5839 5835 5831 5826 5824 5820 5815 5807 5802 5800 5796 5794 5790 5787 5785 5784 5783 5782 5782 5783 5783 5783 5782 5780 5777 5775 5774 5772 5771 5770 5767 5766
5852 5831 5812 5804 5803 5805 5833 5827 5826 5848 5855 5855 5853 5853 5853 5851 5845 5839 5834 5830 5826 5823 5821 5816 5808 5802 5800 5796 5793 5791 5789 5786 5784 5782 5782 5781 5782 5782 5783 5783 5780 5777 5775 5773 5772 5771 5769 5767 5765
5844 5836 5806 5788 5791 5806 5823 5818 5837 5860 5864 5863 5859 5856 5852 5848 5844 5838 5834 5831 5827 5824 5821 5816 5809 5803 5799 5796 5794 5792 5790 5786 5785 5784 5783 5782 5782 5783 5784 5783 5780 5777 5775 5774 5772 5770 5768 5767 5764
5835 5836 5846 5825 5816 5806 5813 5824 5839 5855 5853 5853 5850 5848 5844 5844 5841 5838 5834 5830 5825 5822 5820 5817 5811 5804 5800 5797 5794 5792 5790 5788 5786 5786 5784 5783 5783 5783 5782 5781 5778 5776 5774 5772 5770 5767 5766 5765 5763
5847 5842 5833 5816 5793 5785 5798 5805 5811 5822 5833 5839 5839 5838 5839 5840 5838 5836 5834 5830 5828 5825 5821 5818 5812 5805 5801 5798 5795 5793 5790 5788 5786 5785 5783 5782 5782 5781 5780 5778 5776 5774 5772 5770 5767 5765 5765 5762 5761
5831 5831 5826 5818 5811 5791 5778 5792 5831 5829 5833 5833 5834 5836 5835 5836 5835 5832 5831 5830 5827 5825 5820 5814 5810 5805 5800 5797 5794 5793 5790 5788 5786 5784 5782 5781 5780 5779 5777 5775 5773 5771 5769 5767 5764 5762 5762 5760 5758
5838 5829 5826 5804 5798 5804 5791 5796 5841 5837 5834 5831 5829 5831 5831 5831 5830 5828 5827 5826 5822 5818 5815 5810 5807 5804 5801 5797 5793 5790 5788 5786 5783 5782 5781 5779 5777 5776 5774 5772 5770 5768 5766 5764 5761 5758 5759 5757 5755